Total_Precipitation_Accumulation
0.15 0.12 0.14 0.13 0.09 0.06 0.05 0.08 0.05 0.03 0.03 0.06 0.11 0.10 0.08 0.08 0.06 0.06 0.02 0.03 0.08 0.09 0.08 0.14 0.22 0.22 0.27 0.42 0.46 0.48 0.45 0.36 0.26 0.28 0.29 0.27 0.28 0.24 0.30 0.35 0.40 0.42 0.43
0.35 0.18 0.16 0.11 0.07 0.09 0.06 0.06 0.07 0.08 0.04 0.04 0.03 0.05 0.09 0.10 0.11 0.08 0.09 0.09 0.10 0.11 0.09 0.10 0.14 0.19 0.31 0.39 0.48 0.67 0.71 0.48 0.34 0.36 0.38 0.39 0.42 0.40 0.38 0.41 0.43 0.45 0.48
0.23 0.25 0.20 0.19 0.22 0.34 0.41 0.32 0.22 0.21 0.13 0.10 0.08 0.03 0.03 0.07 0.10 0.10 0.11 0.13 0.18 0.18 0.17 0.13 0.12 0.20 0.37 0.33 0.43 0.59 0.76 0.66 0.55 0.57 0.57 0.56 0.55 0.52 0.52 0.53 0.52 0.48 0.47
0.35 0.27 0.15 0.09 0.25 0.51 0.66 0.52 0.37 0.32 0.22 0.20 0.21 0.19 0.20 0.17 0.12 0.14 0.16 0.17 0.19 0.18 0.18 0.16 0.15 0.21 0.21 0.23 0.30 0.46 0.73 0.88 0.91 1.00 1.09 1.07 1.01 0.97 0.92 0.93 0.94 0.94 1.00
0.61 0.48 0.33 0.20 0.30 0.47 0.48 0.48 0.46 0.44 0.35 0.31 0.30 0.34 0.32 0.26 0.23 0.21 0.17 0.21 0.27 0.33 0.34 0.26 0.25 0.16 0.16 0.21 0.23 0.29 0.57 0.90 0.88 0.97 1.11 1.28 1.10 0.95 0.92 1.03 1.23 1.40 1.60
1.04 1.06 0.74 0.54 0.56 0.57 0.70 0.74 0.40 0.46 0.45 0.57 0.61 0.42 0.37 0.32 0.27 0.26 0.25 0.26 0.31 0.38 0.42 0.46 0.46 0.50 0.61 0.66 0.66 0.59 0.58 0.78 1.02 1.17 1.24 1.31 1.28 1.34 1.30 1.34 1.43 1.46 1.36
1.30 1.40 1.40 1.24 1.02 0.80 0.67 0.75 0.81 0.66 0.44 0.55 0.65 0.40 0.35 0.29 0.22 0.23 0.31 0.36 0.34 0.44 0.62 0.82 0.88 0.81 0.72 0.80 0.84 0.83 0.88 1.01 1.32 1.56 1.73 1.87 1.97 1.92 1.81 1.75 1.69 1.53 1.38
1.40 1.61 1.41 1.33 1.28 1.15 0.89 0.66 0.67 0.72 0.58 0.68 0.67 0.50 0.27 0.15 0.09 0.06 0.13 0.19 0.25 0.36 0.39 0.44 0.49 0.63 0.72 0.65 0.68 0.71 0.70 0.69 0.80 1.04 1.38 1.66 1.58 1.44 1.37 1.39 1.38 1.54 1.75
1.64 1.59 1.74 1.73 1.63 1.52 1.30 1.01 0.89 0.95 0.88 0.81 0.73 0.84 0.42 0.15 0.13 0.14 0.15 0.18 0.21 0.26 0.31 0.49 0.59 0.59 0.48 0.32 0.29 0.27 0.35 0.45 0.57 0.92 1.20 1.48 1.67 1.43 1.33 1.34 1.60 2.05 2.50
1.56 1.74 1.81 1.87 1.99 2.00 1.66 1.61 1.43 1.30 1.23 0.82 0.75 0.62 0.67 0.46 0.35 0.18 0.14 0.24 0.27 0.42 0.57 0.64 0.66 0.51 0.37 0.31 0.31 0.29 0.32 0.29 0.27 0.56 0.93 1.39 1.85 2.06 2.34 2.63 2.83 3.20 3.34
2.15 2.22 2.22 2.25 2.13 2.14 2.33 2.01 1.86 1.74 1.58 1.35 1.10 0.96 0.78 0.70 0.65 0.64 0.39 0.40 0.55 0.65 0.80 0.79 0.60 0.42 0.61 0.85 1.11 1.05 0.78 0.71 0.73 0.97 1.25 1.55 2.12 2.68 3.07 3.37 4.20 3.95 3.98
1.86 2.18 2.33 2.19 2.11 1.79 1.65 1.74 1.68 1.52 1.43 1.25 1.04 0.95 0.87 0.86 0.77 0.86 0.76 0.53 0.57 0.60 0.65 0.86 1.28 1.25 1.22 1.32 1.56 1.69 2.22 1.91 2.34 2.38 2.16 2.69 2.73 3.23 3.17 3.07 2.97 2.23 2.36
1.19 1.25 1.56 1.65 1.42 1.37 1.29 1.29 1.13 1.05 1.12 1.09 1.01 0.88 0.99 1.03 1.21 1.20 1.21 0.88 0.73 0.64 0.68 0.56 0.61 0.64 0.57 0.66 1.21 1.29 1.93 2.28 2.44 2.84 2.72 2.52 2.55 2.19 1.97 1.88 1.98 2.26 2.05
1.48 1.27 1.14 1.42 1.49 1.19 0.94 0.90 0.78 0.61 0.67 0.66 0.71 0.78 0.78 0.87 1.23 1.41 1.47 1.61 1.48 1.08 0.91 0.69 0.75 0.92 0.94 1.11 1.22 1.50 1.32 1.31 1.15 1.25 1.59 1.64 1.55 1.27 0.99 0.85 1.07 1.41 1.51
1.17 1.10 0.96 0.91 0.88 0.78 0.84 0.88 0.85 0.74 0.64 0.62 0.69 0.78 0.83 0.73 0.79 0.97 1.29 1.66 2.15 1.96 1.23 0.86 0.82 0.77 0.73 0.78 1.00 0.94 0.80 1.09 1.07 1.03 1.04 1.14 1.25 1.28 1.03 1.04 1.01 1.11 1.29
1.26 1.22 0.99 0.86 0.66 0.51 0.54 0.55 0.59 0.65 0.75 0.68 0.63 0.71 0.74 0.76 0.89 0.96 1.00 1.18 1.57 2.00 1.95 1.11 0.97 0.91 0.90 0.98 1.13 1.00 0.96 1.14 1.04 1.02 0.94 0.87 0.84 0.72 0.53 0.52 0.59 0.54 0.46
1.14 0.95 1.00 1.08 0.89 0.72 0.68 0.70 0.63 0.63 0.75 0.73 0.68 0.71 0.72 0.72 0.83 0.84 0.90 1.02 1.20 1.41 1.69 1.41 1.27 1.20 1.19 1.17 1.12 0.93 0.78 0.58 0.55 0.63 0.51 0.41 0.32 0.29 0.26 0.25 0.26 0.29 0.33
1.16 0.92 0.76 0.77 0.89 0.90 0.87 0.90 1.06 0.93 0.75 0.80 0.86 0.89 0.83 0.79 0.78 0.80 0.89 0.99 1.20 1.45 1.73 1.74 1.61 1.49 1.28 0.98 0.71 0.50 0.35 0.24 0.17 0.25 0.20 0.16 0.17 0.16 0.14 0.15 0.20 0.22 0.24
1.05 0.91 0.79 0.68 0.63 0.67 0.77 0.86 0.88 0.86 0.87 0.84 0.75 0.74 0.76 0.89 1.08 1.20 1.29 1.31 1.27 1.16 1.08 0.97 0.76 0.63 0.53 0.42 0.33 0.26 0.19 0.15 0.11 0.18 0.18 0.16 0.17 0.14 0.12 0.13 0.17 0.19 0.22
1.00 0.94 0.78 0.75 0.66 0.49 0.52 0.54 0.49 0.55 0.61 0.64 0.61 0.55 0.57 0.63 0.67 0.69 0.72 0.68 0.60 0.52 0.46 0.44 0.48 0.43 0.38 0.30 0.31 0.30 0.29 0.25 0.22 0.19 0.20 0.18 0.20 0.19 0.17 0.15 0.12 0.09 0.08
1.01 1.21 1.00 0.70 0.65 0.57 0.61 0.53 0.46 0.49 0.56 0.69 0.75 0.68 0.61 0.57 0.50 0.42 0.39 0.35 0.39 0.45 0.57 0.70 0.62 0.53 0.39 0.29 0.27 0.25 0.27 0.23 0.23 0.19 0.17 0.17 0.19 0.18 0.16 0.18 0.15 0.14 0.14
1.21 1.13 1.37 1.06 0.71 0.69 0.94 0.69 0.59 0.61 0.59 0.54 0.54 0.49 0.43 0.41 0.29 0.25 0.22 0.21 0.24 0.42 0.56 0.66 0.60 0.41 0.25 0.26 0.29 0.32 0.43 0.42 0.37 0.16 0.21 0.17 0.14 0.14 0.10 0.10 0.15 0.17 0.19
1.41 1.65 1.58 1.53 1.56 1.44 1.47 1.25 0.94 0.70 0.65 0.56 0.49 0.43 0.31 0.22 0.15 0.09 0.08 0.12 0.24 0.33 0.35 0.26 0.19 0.16 0.21 0.24 0.49 0.49 0.39 0.43 0.31 0.14 0.23 0.23 0.15 0.18 0.17 0.19 0.30 0.30 0.31
1.61 1.70 1.69 1.64 1.72 1.62 1.46 1.18 0.97 0.63 0.47 0.44 0.39 0.25 0.14 0.07 0.04 0.05 0.09 0.23 0.17 0.14 0.09 0.13 0.14 0.15 0.24 0.26 0.36 0.54 0.53 0.45 0.33 0.21 0.21 0.41 0.13 0.12 0.15 0.14 0.26 0.33 0.37
1.50 1.41 1.35 1.32 1.15 1.11 1.07 0.88 0.72 0.57 0.39 0.21 0.13 0.10 0.09 0.06 0.04 0.13 0.18 0.25 0.10 0.02 0.03 0.09 0.17 0.18 0.23 0.34 0.46 0.62 0.65 0.67 0.57 0.26 0.20 0.38 0.24 0.20 0.16 0.16 0.25 0.47 0.47
1.34 1.13 1.06 1.06 1.04 0.87 0.98 0.67 0.52 0.45 0.44 0.34 0.16 0.08 0.07 0.07 0.09 0.25 0.20 0.09 0.06 0.05 0.14 0.18 0.17 0.18 0.19 0.22 0.30 0.32 0.49 1.05 0.87 0.77 0.33 0.82 0.61 0.53 0.88 0.29 0.19 0.22 0.33